100LL.CA
Aviation Fuel Pricing for Canadians
Please upgrade your browser - Tested with IE9, FireFox, Chrome, Safari

Fuel Prices Airport Info Airport List METAR / TAF Kneeboard RSS

Reference Airport: Hope, BC
N 49 22 06   W 121 29 53

CYHE Hope, BC
WEATHER
METARCYHE 140600Z AUTO 11013G19KT 9SM SCT240 06/01 A3050 RMK SLP332
REF N 49 22 06  W 121 29 53    2.6W    17E (2012)
UTC-8(7)    Elev 128    A5004 LO2 HI3
OPR Fraser Valley Regional District 604-869-2819
Reg
PFB-1,2 C-3,5,6
FLT PLN NOTAM FILE CYXX
FIC Kamloops 866-WXBRIEF (Toll free within Canada) or 866-541-4101 (Toll free within Canada & USA)
WXMETAR AUTO H24 Tml advsy fcst in VFR rte fcst (dur DT only), issue times: 14, 17, 20, 23Z. WxCam
SERVICES
FUEL100LL, JA-1 Self-serve/cardlock
PRICES100LL public: 1.540; JETA: 1.080; current as of 2017-10-10.
OIL15W50
RWY DATARwy 07/25 3960x250 turf
RCRCaretaker 604-869-2819 No win maint. Rwy may be soft dur win & spring.
COMM
RCOPacific rdo 125.850 (FISE) 126.7 (bcst)
ATFtfc 123.3 5NM 3100 ASL
NAV
NDBHE 245 (M) N49 23 11 W121 25 27
PROPowered acft ops S of ldg area markers, gliders ops N.
CAUTIONExtv glider activity. Helicopter activity mile SE. Mtns terrain, anticipate turbulence & wind shear.
Effective 0901Z 07 December 2017 to 0901Z 01 February 2018